     2              OBSERVATION DATA    GPS                 RINEX VERSION / TYPE
teqc 1998Jul1 Simon McClusky 99/06/22                       PGM / RUN BY / DATE
                                                            COMMENT
L2: 1 -> 1; 150 -> 5; 250 -> 9                              COMMENT
L2: 1 -> 1; 150 -> 5; 250 -> 9                              COMMENT
L2: 1 -> 1; 150 -> 5; 250 -> 9                              COMMENT
L2: 1 -> 1; 150 -> 5; 250 -> 9                              COMMENT
L2: 1 -> 1; 150 -> 5; 250 -> 9                              COMMENT
Original Marker Name: GS27                                  COMMENT
Campaign Name: China Lake May 1999                          COMMENT
4-Character Station Name: GS27                              COMMENT
6-Character Antenna Code: ASHGD3                            COMMENT
Vertical Measurement Point: TGP                             COMMENT
Vertical Offset to Rinex Ref. Point: 0.0640                 COMMENT
Radial Measurement Point: RRP                               COMMENT
Radial Offset to Rinex Ref. Point: 0.0000                   COMMENT
Antenna Height from Field Measurement: 0.2390 m             COMMENT
Additional Antenna Identification Info.:                    COMMENT
The Whopper (700718AB)                                      COMMENT
Original XYZ: -2380866.8100 -4582627.8800 3734114.7700      COMMENT
New XYZ position is based on association with SCEC monument COMMENT
E1F4O1V7+0011. Position of that monument is believed to be  COMMENT
valid to within 1 m horizontally; vertical accuracy         COMMENT
should be no worse than 3-times this value.                 COMMENT
                                                            COMMENT
Revised Rinex header created by UCSD GPS archive for        COMMENT
GSAC on 01-Aug-2000 (2000:214) 21:36:47 GMT                 COMMENT
For assistance contact dagnew@ucsd.edu                      COMMENT
or anderson@python.ucsd.edu                                 COMMENT
                                                            COMMENT
GO27                                                        MARKER NAME
C_W US NATIONAL IMAGERY MAPPING AGENCY                      OBSERVER / AGENCY
489 ASHTECH Z-XII3 4J30                                     REC # / TYPE / VERS
110 ASHTECH GEODETIC III                                    ANT # / TYPE
 -2380863.5182 -4582616.5349  3734134.6946                  APPROX POSITION XYZ
        0.1750        0.0000        0.0000                  ANTENNA: DELTA H/E/N
     1     1     0                                          WAVELENGTH FACT L1/2
     5    L1    L2    C1    P2    P1                        # / TYPES OF OBSERV
    30                                                      INTERVAL
  1999     4    22    15    26    0.000000                  TIME OF FIRST OBS
  1999     4    22    21    29   60.000000                  TIME OF LAST OBS
                                                            END OF HEADER
 99  4 22 15 26  0.0000000  0  6G 2G27G26G19G15G13
   -665658.56849   -513777.58047  21049385.878    21049391.582    21049385.174
    104680.35149     81944.65847  20415682.502    20415688.116    20415682.133
  -1927478.44349  -1488355.83747  22689940.352    22689946.939    22689940.381
   2136408.19259   1655371.71156  23648290.789    23648298.837    23648290.279
  -1270737.04449   -983440.84846  23540207.316    23540216.144    23540206.656
   2076713.41049   1605227.70346  22591533.031    22591538.102    22591533.049
 99  4 22 15 26 30.0000000  0  6G 2G27G26G19G15G13
   -685760.28849   -529441.28447  21045560.652    21045566.384    21045559.959
    114278.33649     89423.57947  20417508.959    20417514.604    20417508.589
  -1982829.67449  -1531486.65647  22679407.370    22679413.970    22679407.407
   2208002.07149   1711159.04146  23661914.736    23661922.845    23661914.239
  -1304557.45249  -1009794.43346  23533771.498    23533780.383    23533770.866
   2147544.74649   1660420.85346  22605011.842    22605016.952    22605011.854
 99  4 22 15 27  0.0000000  0  6G 2G27G26G19G15G13
   -705793.81449   -545051.84947  21041748.440    21041754.186    21041747.739
    124304.83549     97236.40447  20419416.957    20419422.648    20419416.599
  -2037711.64049  -1574251.83347  22668963.702    22668970.306    22668963.747
   2279774.45749   1767085.47746  23675572.550    23675580.796    23675572.119
  -1337877.42949  -1035758.07946  23527430.892    23527439.806    23527430.304
   2218547.32249   1715747.44246  22618523.266    22618528.429    22618523.276
 99  4 22 15 27 30.0000000  0  6G 2G27G26G19G15G13
   -725759.36849   -560609.45047  21037949.083    21037954.907    21037948.444
    134739.96749    105367.63947  20421402.719    20421408.439    20421402.371
  -2092158.97249  -1616678.33547  22658602.779    22658609.334    22658602.806
   2351708.08749   1823137.53146  23689261.079    23689269.475    23689260.663
  -1370719.10749  -1061349.02446  23521181.338    23521190.227    23521180.739
   2289704.01949   1771194.10846  22632063.921    22632069.244    22632063.988
 99  4 22 15 28  0.0000000  0  6G 2G27G26G19G15G13
   -745654.05949   -576111.83047  21034163.234    21034169.102    21034162.622
    145588.26149    113820.82547  20423467.076    20423472.849    20423466.757
  -2146188.93749  -1658779.58847  22648321.198    22648327.764    22648321.268
   2423792.67149   1879307.22346  23702978.362    23702986.853    23702977.965
  -1403088.51049  -1086571.96846  23515021.729    23515030.543    23515021.137
   2361022.57249   1826766.92346  22645635.468    22645640.824    22645635.502
 99  4 22 15 28 30.0000000  0  6G 2G27G26G19G15G13
   -765497.88749   -591574.57747  21030387.164    21030392.979    21030386.513
    156824.01249    122575.91747  20425605.215    20425610.985    20425604.884
  -2199821.34549  -1700571.08947  22638115.378    22638121.848    22638115.418
   2495998.97949   1935571.76846  23716718.786    23716727.402    23716718.452
  -1435007.19449  -1111443.70246  23508947.878    23508956.654    23508947.248
   2432488.31849   1882454.43646  22659235.018    22659240.422    22659235.076
 99  4 22 15 29  0.0000000  0  6G 2G27G26G19G15G13
   -785261.70049   -606974.96847  21026626.203    21026632.076    21026625.581
    168451.98549    131636.64247  20427817.995    20427823.776    20427817.657
  -2253042.39949  -1742042.03947  22627987.801    22627994.197    22627987.815
   2568326.65449   1991930.91145  23730482.356    23730491.003    23730482.039
  -1466463.64249  -1135955.27246  23502961.981    23502970.725    23502961.316
   2504106.21549   1938260.49146  22672863.602    22672868.973    22672863.610
 99  4 22 15 29 30.0000000  0  6G 2G27G26G19G15G13
   -804925.05549   -622297.11147  21022884.441    21022890.312    21022883.818
    180479.76849    141008.87547  20430106.854    20430112.609    20430106.495
  -2305842.69749  -1783185.10246  22617940.184    22617946.636    22617940.243
   2640769.41849   2048379.71045  23744267.833    23744276.502    23744267.487
  -1497443.74849  -1160095.61646  23497066.742    23497075.435    23497066.066
   2575907.54849   1994209.53245  22686526.971    22686532.417    22686527.028
 99  4 22 15 30  0.0000000  0  6G 2G27G26G19G15G13
   -824518.52449   -637564.76547  21019156.003    21019161.853    21019155.350
    192886.81949    150676.68947  20432467.860    20432473.622    20432467.506
  -2358231.17949  -1824007.30147  22607970.964    22607977.437    22607971.074
   2713306.71649   2104902.12546  23758071.306    23758079.946    23758070.941
  -1527956.70549  -1183872.00846  23491260.349    23491269.036    23491259.649
   2647869.26549   2050283.53345  22700220.967    22700226.352    22700220.988
 99  4 22 15 30 30.0000000  0  6G 2G27G26G19G15G13
   -844018.56249   -652759.58347  21015445.313    21015451.161    21015444.636
    205679.68649    160645.14047  20434902.369    20434908.075    20434901.968
  -2410164.11549  -1864474.52447  22598088.415    22598094.957    22598088.564
   2785957.92349   2161513.33845  23771896.445    23771905.144    23771896.103
  -1557974.44849  -1207262.53646  23485548.105    23485556.835    23485547.439
   2720003.35349   2106491.79246  22713947.663    22713953.071    22713947.704
 99  4 22 15 31  0.0000000  0  6G 2G27G26G19G15G13
   -863412.00849   -667871.39047  21011754.848    21011760.746    21011754.223
    218870.38249    170923.57647  20437412.498    20437418.228    20437412.109
  -2461620.46949  -1904570.39647  22588296.587    22588303.174    22588296.755
   2858729.41649   2218218.29245  23785744.434    23785753.228    23785744.156
  -1587485.28049  -1230258.05846  23479932.372    23479941.118    23479931.724
   2792308.47849   2162833.35746  22727706.975    22727712.382    22727707.006
 99  4 22 15 31 30.0000000  0  6G 2G27G26G19G15G13
   -882721.97549   -682918.13647  21008080.259    21008086.206    21008079.666
    232451.40449    181506.15447  20439996.894    20440002.659    20439996.511
  -2512609.50149  -1944302.10947  22578593.772    22578600.281    22578593.871
   2931613.92349   2275011.29045  23799613.968    23799622.784    23799613.715
  -1616499.21949  -1252866.36746  23474411.252    23474419.955    23474410.624
   2864761.67749   2219290.32146  22741494.501    22741499.877    22741494.481
 99  4 22 15 31 59.9990000  0  6G 2G27G26G19G15G13
   -901943.70949   -697896.12647  21004422.483    21004428.472    21004421.906
    246435.52549    192402.83547  20442657.987    20442663.787    20442657.635
  -2563107.20949  -1983650.98047  22568984.397    22568990.856    22568984.483
   3004624.90849   2331902.84745  23813507.617    23813516.409    23813507.330
  -1645011.43949  -1275083.73046  23468985.664    23468994.306    23468984.998
   2937343.92649   2275847.82146  22755306.436    22755311.897    22755306.472
 99  4 22 15 32 29.9990000  0  6G 2G27G26G19G15G13
   -921049.79049   -712784.03147  21000786.718    21000792.741    21000786.177
    260848.79849    203633.90447  20445400.765    20445406.577    20445400.420
  -2613092.30849  -2022600.39446  22559472.526    22559479.016    22559472.620
   3077789.64549   2388914.21545  23827430.511    23827439.336    23827430.183
  -1673003.23549  -1296895.49746  23463659.032    23463667.689    23463658.349
   3010073.98349   2332520.57945  22769146.538    22769152.108    22769146.609
 99  4 22 15 32 59.9990000  0  6G 2G27G26G19G15G13
   -940063.52149   -727599.91047  20997168.590    20997174.599    20997168.005
    275678.36949    215189.39647  20448222.802    20448228.622    20448222.433
  -2662604.34949  -2061181.21447  22550050.713    22550057.202    22550050.808
   3151086.64849   2446028.59145  23841378.497    23841387.376    23841378.168
  -1700497.94949  -1318320.07646  23458427.003    23458435.643    23458426.325
   3082914.65049   2389279.38846  22783007.690    22783013.374    22783007.795
 99  4 22 15 33 29.9990000  0  6G 2G27G26G19G15G13
   -959033.68649   -742381.87947  20993558.672    20993564.691    20993558.122
    290891.36149    227043.63647  20451117.714    20451123.606    20451117.387
  -2711673.32549  -2099416.78847  22540713.151    22540719.707    22540713.290
   3224497.17749   2503231.47545  23855348.151    23855357.062    23855347.820
  -1727520.37549  -1339376.52846  23453284.777    23453293.512    23453284.139
   3155834.26449   2446099.79546  22796883.839    22796889.628    22796883.967
 99  4 22 15 33 59.9990000  0  6G 2G27G26G19G15G13
   -977943.20149   -757116.57847  20989960.350    20989966.347    20989959.785
    306506.60749    239211.32347  20454089.205    20454095.146    20454088.897
  -2760276.40249  -2137289.30347  22531464.253    22531470.859    22531464.429
   3298042.57949   2560539.45045  23869343.476    23869352.370    23869343.137
  -1754043.16249  -1360043.65746  23448237.688    23448246.405    23448237.066
   3228859.72749   2503002.66546  22810780.150    22810786.007    22810780.287
 99  4 22 15 34 29.9990000  0  6G 2G27G26G19G15G13
   -996761.67749   -771780.35047  20986379.320    20986385.322    20986378.771
    322557.15749    251718.20847  20457143.590    20457149.525    20457143.260
  -2808399.01949  -2174787.48147  22522306.913    22522313.425    22522307.048
   3371743.85249   2617968.89145  23883368.520    23883377.359    23883368.141
  -1780032.27549  -1380294.90246  23443292.150    23443300.895    23443291.529
   3302032.77549   2560020.56046  22824704.622    22824710.490    22824704.726
 99  4 22 15 34 59.9990000  0  6G 2G27G26G19G15G13
  -1015499.08449   -786380.94347  20982813.731    20982819.725    20982813.191
    339035.21849    264558.22047  20460279.308    20460285.250    20460278.973
  -2856059.86449  -2211925.80847  22513237.441    22513243.896    22513237.516
   3445596.80849   2675516.51345  23897422.389    23897431.287    23897422.004
  -1805494.34449  -1400135.46546  23438446.919    23438455.706    23438446.296
   3375355.94349   2617155.39246  22838657.691    22838663.554    22838657.747
 99  4 22 15 35 29.9990000  0  6G 2G27G26G19G15G13
  -1034178.54049   -800936.37747  20979259.159    20979265.183    20979258.602
    355926.45049    277720.18147  20463493.673    20463499.603    20463493.318
  -2903265.27849  -2248709.26047  22504254.634    22504261.071    22504254.668
   3519579.66249   2733165.36445  23911501.020    23911509.906    23911500.587
  -1830446.59849  -1419578.76746  23433698.664    23433707.502    23433698.055
   3448830.20449   2674407.96946  22852639.382    22852645.363    22852639.503
 99  4 22 15 35 59.9990000  0  6G 2G27G26G19G15G13
  -1052764.04649   -815418.61347  20975722.577    20975728.501    20975721.940
    373233.39949    291206.08047  20466787.134    20466793.076    20466786.762
  -2950020.73049  -2285142.09147  22495357.339    22495363.869    22495357.388
   3593681.73349   2790907.10445  23925602.285    23925611.239    23925601.839
  -1854892.46649  -1438627.48846  23429046.798    23429055.657    23429046.188
   3522468.04249   2731788.01746  22866652.323    22866658.288    22866652.387
 99  4 22 15 36 29.9990000  0  6G 2G27G26G19G15G13
  -1071230.09649   -829807.75647  20972208.648    20972214.565    20972207.998
    390972.16249    305028.45947  20470162.710    20470168.715    20470162.367
  -2996299.12049  -2321203.18547  22486550.812    22486557.408    22486550.909
   3667921.79649   2848756.36445  23939729.788    23939738.843    23939729.354
  -1878820.94149  -1457273.04946  23424493.303    23424502.252    23424492.748
   3596285.44849   2789307.98946  22880699.378    22880705.355    22880699.431
 99  4 22 15 36 59.9990000  0  6G 2G27G26G19G15G13
  -1089586.72249   -844111.63147  20968715.397    20968721.425    20968714.833
    409107.78349    319160.07947  20473613.802    20473619.870    20473613.489
  -3042115.57649  -2356904.33247  22477832.233    22477838.821    22477832.315
   3742284.63649   2906701.29045  23953880.736    23953889.804    23953880.297
  -1902255.20949  -1475533.49946  23420033.884    23420042.861    23420033.349
   3670248.33749   2846941.30946  22894774.050    22894780.141    22894774.156
 99  4 22 15 37 29.9990000  0  6G 2G27G26G19G15G13
  -1107817.20449   -858317.21747  20965246.263    20965252.287    20965245.690
    427654.71449    333612.20147  20477143.171    20477149.288    20477142.871
  -3087449.36149  -2392229.37447  22469205.595    22469212.125    22469205.615
   3816772.44849   2964743.58245  23968055.564    23968064.569    23968055.029
  -1925185.30849  -1493401.10146  23415670.467    23415679.453    23415669.917
   3744354.89549   2904686.58646  22908876.140    22908882.216    22908876.220
 99  4 22 15 37 59.9990000  0  6G 2G27G26G19G15G13
  -1125911.65849   -872416.80747  20961802.987    20961809.073    20961802.454
    446605.78449    348379.23147  20480749.454    20480755.594    20480749.165
  -3132297.18049  -2427175.73147  22460671.317    22460677.926    22460671.384
   3891378.62749   3022878.10345  23982252.942    23982261.825    23982252.301
  -1947603.71949  -1510869.98846  23411404.354    23411413.410    23411403.846
   3818591.63349   2962533.31546  22923003.036    22923009.057    22923003.081
 99  4 22 15 38 29.9990000  0  6G 2G27G26G19G15G13
  -1143878.27649   -886416.78847  20958384.079    20958390.173    20958383.511
    465982.35749    363477.82547  20484436.686    20484442.850    20484436.411
  -3176637.50949  -2461726.64947  22452233.531    22452240.271    22452233.702
   3966126.97849   3081123.41545  23996477.202    23996486.136    23996476.610
  -1969480.55449  -1527916.87246  23407241.364    23407250.394    23407240.840
   3892961.07849   3020483.41846  22937155.038    22937161.192    22937155.155
 99  4 22 15 38 59.9990000  0  6G 2G27G26G19G15G13
  -1161773.41549   -900361.07247  20954978.696    20954984.859    20954978.209
    485747.36449    378879.09247  20488197.843    20488204.023    20488197.577
  -3220521.12749  -2495921.69847  22443882.692    22443889.525    22443882.925
   4040974.36649   3139445.90845  24010720.352    24010729.287    24010719.731
  -1990852.99149  -1544570.70946  23403174.387    23403183.374    23403173.824
   3967412.37449   3078497.34546  22951322.736    22951328.906    22951322.852
 99  4 22 15 39 29.9990000  0  6G 2G27G26G19G15G13
  -1179636.58349   -914280.44247  20951579.481    20951585.648    20951578.981
    505889.69849    394574.38147  20492030.802    20492037.007    20492030.555
  -3263948.83649  -2529761.48147  22435618.707    22435625.561    22435618.898
   4115894.50649   3197825.06945  24024977.359    24024986.263    24024976.696
  -2011734.83949  -1560842.29246  23399200.740    23399209.696    23399200.172
   4041931.77749   3136564.30746  22965503.358    22965509.571    22965503.466
 99  4 22 15 39 59.9990000  0  6G 2G27G26G19G15G13
  -1197472.13349   -928178.29647  20948185.659    20948191.681    20948185.038
    526406.69349    410561.61847  20495935.106    20495941.301    20495934.830
  -3306912.73949  -2563239.85447  22427442.998    22427449.864    22427443.160
   4190893.11949   3256265.39145  24039249.240    24039258.158    24039248.569
  -2032123.81349  -1576729.82746  23395320.859    23395329.817    23395320.292
   4116515.22549   3194681.17546  22979696.112    22979702.410    22979696.290
 99  4 22 15 40 29.9990000  0  6G 2G27G26G19G15G13
  -1215245.96349   -942028.05047  20944803.395    20944809.461    20944802.809
    547338.96849    426872.45447  20499918.468    20499924.652    20499918.162
  -3349379.87849  -2596331.14047  22419361.718    22419368.652    22419361.922
   4266015.39949   3314802.08045  24053544.621    24053553.578    24053543.957
  -2051995.72349  -1592214.44446  23391539.334    23391548.319    23391538.795
   4191186.90349   3252866.81246  22993905.787    22993912.017    22993905.914
 99  4 22 15 40 59.9990000  0  6G 2G27G26G19G15G13
  -1232937.61949   -955813.77647  20941436.812    20941442.861    20941436.221
    568693.59849    443512.38847  20503982.140    20503988.348    20503981.849
  -3391346.91849  -2629032.74047  22411375.632    22411382.611    22411375.866
   4341253.97749   3373429.37845  24067862.085    24067871.139    24067861.481
  -2071350.84149  -1607296.38746  23387856.270    23387865.209    23387855.653
   4265960.63749   3311131.95746  23008134.801    23008141.115    23008134.944
 99  4 22 15 41 29.9990000  0  6G 2G27G26G19G15G13
  -1250526.24349   -969519.21947  20938089.825    20938095.887    20938089.254
    590471.94949    460482.49247  20508126.441    20508132.657    20508126.160
  -3432820.77349  -2661350.04247  22403483.464    22403490.426    22403483.666
   4416602.00749   3432141.94645  24082200.386    24082209.501    24082199.823
  -2090183.34049  -1621971.10246  23384272.536    23384281.491    23384271.936
   4340846.03349   3369484.09446  23022385.069    23022391.417    23022385.205
 99  4 22 15 41 59.9990000  0  6G 2G27G26G19G15G13
  -1267991.58149   -983128.59847  20934766.278    20934772.349    20934765.745
    612686.55249    477792.53747  20512353.781    20512360.006    20512353.483
  -3473824.83049  -2693301.26347  22395680.730    22395687.662    22395680.888
   4492070.52049   3490948.39545  24096561.720    24096570.815    24096561.091
  -2108488.11049  -1636234.60646  23380789.259    23380798.240    23380788.657
   4415835.89049   3427917.63746  23036655.247    23036661.578    23036655.356
 99  4 22 15 42 29.9990000  0  6G 2G27G26G19G15G13
  -1285342.18549   -996648.56747  20931464.569    20931470.644    20931464.053
    635333.79549    495439.70947  20516663.426    20516669.676    20516663.144
  -3514386.14649  -2724907.48547  22387962.175    22387969.121    22387962.330
   4567654.56549   3549844.87645  24110944.981    24110954.114    24110944.403
  -2126267.46549  -1650088.69946  23377405.960    23377414.965    23377405.384
   4490929.11649   3486431.72746  23050945.092    23050951.463    23050945.174
 99  4 22 15 42 59.9990000  0  6G 2G27G26G19G15G13
  -1302584.44549  -1010084.11747  20928183.501    20928189.561    20928182.995
    658403.84949    513416.34047  20521053.569    20521059.797    20521053.271
  -3554514.87449  -2756176.64147  22380325.990    22380332.885    22380326.103
   4643348.43749   3608826.93645  24125349.079    24125358.307    24125348.549
  -2143519.19549  -1663531.66346  23374123.080    23374132.119    23374122.502
   4566130.58249   3545030.16646  23065255.561    23065261.910    23065255.646
 99  4 22 15 43 29.9990000  0  6G 2G27G26G19G15G13
  -1319684.55749  -1023408.90347  20924929.485    20924935.536    20924928.990
    681930.08649    531748.43647  20525530.527    20525536.740    20525530.212
  -3594159.69349  -2787068.72647  22372781.900    22372788.718    22372781.967
   4719207.03449   3667937.35445  24139784.514    24139793.840    24139784.076
  -2160206.53249  -1676534.85646  23370947.600    23370956.702    23370947.036
   4641459.27849   3603727.75146  23079590.158    23079596.572    23079590.286
 99  4 22 15 43 59.9990000  0  6G 2G27G26G19G15G13
  -1336687.42849  -1036657.91247  20921693.888    20921700.026    20921693.461
    705869.64649    550402.60047  20530086.066    20530092.313    20530085.776
  -3633344.07949  -2817602.03047  22365325.378    22365332.182    22365325.447
   4795196.76149   3727149.96045  24154244.924    24154254.317    24154244.543
  -2176370.33549  -1689130.08646  23367871.780    23367880.888    23367871.174
   4716865.28849   3662485.55546  23093939.490    23093945.993    23093939.607
 99  4 22 15 44 29.9990000  0  6G 2G27G26G19G15G13
  -1353584.63849  -1049824.59247  20918478.538    20918484.632    20918478.069
    730223.00549    569379.21047  20534720.406    20534726.641    20534720.098
  -3672023.15049  -2847741.57247  22357965.050    22357971.821    22357965.091
   4871325.40549   3786470.83445  24168731.804    24168741.261    24168731.479
  -2191996.85049  -1701306.64746  23364898.208    23364907.289    23364897.581
   4792374.72449   3721323.99346  23108308.560    23108315.077    23108308.645
 99  4 22 15 44 59.9990000  0  6G 2G27G26G19G15G13
  -1370375.54749  -1062908.44447  20915283.429    20915289.438    20915282.906
    754981.60349    588671.58747  20539431.799    20539438.089    20539431.517
  -3710171.25349  -2877467.38347  22350705.702    22350712.479    22350705.763
   4947581.02949   3845890.65645  24183242.936    24183252.364    24183242.569
  -2207090.08249  -1713067.67146  23362026.109    23362035.169    23362025.477
   4867971.55949   3780230.49446  23122694.184    23122700.774    23122694.315
 99  4 22 15 45 29.9990000  0  6G 2G27G26G19G15G13
  -1387060.30149  -1075909.56847  20912108.463    20912114.425    20912107.924
    780150.49449    608283.67347  20544221.321    20544227.598    20544221.014
  -3747776.83549  -2906770.45347  22343549.615    22343556.375    22343549.686
   5023961.19349   3905407.51545  24197777.714    24197787.094    24197777.329
  -2221643.57649  -1724408.09646  23359256.682    23359265.777    23359256.059
   4943649.16749   3839199.93846  23137095.293    23137101.872    23137095.378
 99  4 22 15 45 59.9990000  0  6G 2G27G26G19G15G13
  -1403632.61949  -1088823.08547  20908954.946    20908960.849    20908954.328
    805738.16949    628222.08147  20549090.491    20549096.786    20549090.210
  -3784833.11749  -2935645.49047  22336498.086    22336504.799    22336498.129
   5100466.53949   3965021.91245  24212336.413    24212345.738    24212335.982
  -2235647.63749  -1735320.39646  23356591.759    23356600.900    23356591.172
   5019430.78549   3898250.43046  23151516.077    23151522.703    23151516.202
 99  4 22 15 46 29.9990000  0  6G 2G27G26G19G15G13
  -1420103.80949  -1101657.79947  20905820.571    20905826.509    20905819.988
    831735.98849    648480.08347  20554037.746    20554044.045    20554037.462
  -3821358.92649  -2964107.16447  22329547.385    22329554.166    22329547.486
   5177080.33149   4024720.82345  24226915.722    24226925.007    24226915.177
  -2249119.54749  -1745818.00546  23354028.154    23354037.333    23354027.571
   5095303.82049   3957372.14346  23165954.339    23165960.993    23165954.435
 99  4 22 15 46 59.9990000  0  6G 2G27G26G19G15G13
  -1436474.20249  -1114413.96647  20902705.363    20902711.365    20902704.787
    858145.62649    669058.98747  20559063.374    20559069.659    20559063.081
  -3857387.23549  -2992181.17247  22322691.417    22322698.226    22322691.554
   5253790.28849   4084494.68545  24241513.271    24241522.586    24241512.716
  -2262066.43249  -1755906.50746  23351564.364    23351573.680    23351563.887
   5171255.76549   4016555.36446  23180407.691    23180414.295    23180407.721
 99  4 22 15 47 29.9990000  0  6G 2G27G26G19G15G13
  -1452707.48249  -1127063.30147  20899616.220    20899622.302    20899615.719
    885008.99349    689991.43947  20564175.350    20564181.631    20564175.047
  -3892904.66549  -3019857.11247  22315932.698    22315939.460    22315932.819
   5330626.44449   4144366.86245  24256134.811    24256144.235    24256134.307
  -2274458.15349  -1765562.40046  23349206.316    23349215.679    23349205.811
   5247327.97449   4075832.29246  23194883.941    23194890.486    23194883.898
 99  4 22 15 47 59.9990000  0  6G 2G27G26G19G15G13
  -1468825.24449  -1139622.62247  20896549.140    20896555.207    20896548.634
    912306.73149    711262.36747  20569369.978    20569376.271    20569369.673
  -3927940.41849  -3047157.70647  22309265.612    22309272.404    22309265.760
   5407557.61649   4204313.12345  24270774.562    24270783.879    24270774.034
  -2286321.50949  -1774806.58146  23346948.771    23346958.183    23346948.263
   5323498.27849   4135185.65146  23209378.692    23209385.345    23209378.699
 99  4 22 15 48 29.9990000  0  6G 2G27G26G19G15G13
  -1484818.10449  -1152084.61347  20893505.859    20893511.884    20893505.322
    940044.24249    732875.97647  20574648.304    20574654.600    20574647.988
  -3962499.19849  -3074086.64647  22302689.412    22302696.098    22302689.479
   5484583.49349   4264333.16245  24285432.240    24285441.650    24285431.738
  -2297645.23449  -1783630.24446  23344793.929    23344803.416    23344793.440
   5399753.47849   4194605.17646  23223889.617    23223896.297    23223889.654
 99  4 22 15 48 59.9990000  0  6G 2G27G26G19G15G13
  -1500683.27549  -1164447.11047  20890486.865    20890492.888    20890486.319
    968230.37549    754839.16047  20580011.970    20580018.269    20580011.674
  -3996558.47349  -3100626.34047  22296208.151    22296214.884    22296208.246
   5561716.48549   4324436.66045  24300110.359    24300119.773    24300109.850
  -2308408.12849  -1792016.90346  23342745.854    23342755.342    23342745.323
   5476101.37449   4254096.91046  23238418.192    23238424.985    23238418.250
 99  4 22 15 49 29.9990000  0  6G 2G27G26G19G15G13
  -1516367.97349  -1176668.97747  20887502.172    20887508.216    20887501.647
    996929.93049    777202.41547  20585473.359    20585479.648    20585473.054
  -4030038.50249  -3126714.69147  22289837.162    22289843.875    22289837.237
   5639031.94149   4384682.34145  24314823.075    24314832.600    24314822.607
  -2318543.75949  -1799914.79546  23340817.164    23340826.663    23340816.603
   5552591.53049   4313699.46746  23252973.894    23252980.739    23252973.929
 99  4 22 15 49 59.9990000  0  6G 2G27G26G19G15G13
  -1531935.72749  -1188799.71247  20884539.702    20884545.806    20884539.201
   1026073.90849    799911.97347  20591019.328    20591025.600    20591019.011
  -4062988.30949  -3152389.87647  22283567.037    22283573.769    22283567.120
   5716472.76549   4445025.70145  24329559.650    24329569.302    24329559.214
  -2328108.60749  -1807367.90546  23338997.075    23339006.561    23338996.521
   5629152.30349   4373357.08946  23267542.990    23267549.820    23267543.048
 99  4 22 15 50 29.9990000  0  6G 2G27G26G19G15G13
  -1547392.17549  -1200843.72447  20881598.480    20881604.581    20881597.964
   1055649.88149    822958.15247  20596647.455    20596653.766    20596647.155
  -4095412.77249  -3177655.69947  22277396.893    22277403.584    22277396.957
   5794028.84149   4505458.87745  24344318.016    24344327.880    24344317.707
  -2337110.34949  -1814382.24546  23337284.112    23337293.610    23337283.560
   5705774.11849   4433062.26846  23282123.702    23282130.567    23282123.790
 99  4 22 15 50 59.9990000  0  6G 2G27G26G19G15G13
  -1562726.15049  -1212792.30047  20878680.593    20878686.678    20878680.053
   1085668.51449    846349.25847  20602359.819    20602366.157    20602359.551
  -4127304.80049  -3202506.64547  22271327.995    22271334.728    22271328.125
   5871710.09649   4565989.60545  24359100.302    24359110.293    24359100.013
  -2345545.02749  -1820954.70446  23335679.111    23335688.584    23335678.537
   5782478.30749   4492831.62046  23296720.182    23296727.053    23296720.246
 99  4 22 15 51 29.9990000  0  6G 2G27G26G19G15G13
  -1577917.15349  -1224629.46847  20875789.925    20875795.969    20875789.349
   1116147.01749    870098.70647  20608159.741    20608166.072    20608159.442
  -4158671.15649  -3226947.97847  22265359.145    22265365.914    22265359.308
   5949529.98349   4626628.36645  24373908.932    24373919.105    24373908.769
  -2353408.06149  -1827081.73946  23334182.804    23334192.291    23334182.248
   5859274.72049   4552672.85546  23311334.109    23311341.036    23311334.187
 99  4 22 15 51 59.9990000  0  6G 2G27G26G19G15G13
  -1592962.73249  -1236353.31747  20872926.864    20872932.933    20872926.296
   1147072.42949    894196.39447  20614044.692    20614051.025    20614044.385
  -4189522.21449  -3250987.78447  22259488.348    22259495.160    22259488.550
   6027465.37849   4687357.14445  24388739.582    24388749.853    24388739.453
  -2360706.17649  -1832768.56946  23332793.997    23332803.528    23332793.433
   5936166.88149   4612588.70546  23325966.314    23325973.241    23325966.330
 99  4 22 15 52 29.9990000  0  6G 2G27G26G19G15G13
  -1607864.09849  -1247964.79647  20870091.311    20870097.328    20870090.695
   1178464.83849    918657.98447  20620018.440    20620024.849    20620018.186
  -4219861.64349  -3274628.90747  22253714.944    22253721.758    22253715.155
   6105528.94749   4748185.78745  24403594.625    24403605.054    24403594.482
  -2367432.98349  -1838010.23246  23331513.889    23331523.462    23331513.379
   6013164.99949   4672587.12546  23340618.691    23340625.624    23340618.710
 99  4 22 15 52 59.9990000  0  6G 2G27G26G19G15G13
  -1622613.34949  -1259457.74147  20867284.653    20867290.671    20867284.034
   1210342.46949    943497.66447  20626084.587    20626091.000    20626084.313
  -4249669.29049  -3297855.65247  22248042.846    22248049.535    22248042.990
   6183748.52949   4809136.01545  24418479.421    24418489.901    24418479.212
  -2373574.98949  -1842796.20246  23330345.098    23330354.666    23330344.588
   6090264.67349   4732664.63746  23355290.365    23355297.422    23355290.375
 99  4 22 15 53 29.9990000  0  6G 2G27G26G19G15G13
  -1637259.58549  -1270870.41747  20864497.588    20864503.609    20864496.962
   1242650.12549    968672.42547  20632232.562    20632238.972    20632232.286
  -4278983.21449  -3320697.67547  22242464.588    22242471.294    22242464.757
   6262080.16749   4870173.54245  24433385.579    24433396.189    24433385.310
  -2379178.27649  -1847162.39946  23329278.819    23329288.366    23329278.333
   6167401.25749   4792770.93646  23369968.988    23369976.127    23369969.041
 99  4 22 15 53 59.9990000  0  6G 2G27G26G19G15G13
  -1651792.81249  -1282195.03447  20861731.987    20861738.071    20861731.427
   1275377.11049    994173.93847  20638460.331    20638466.741    20638460.059
  -4307786.07449  -3343141.46247  22236983.609    22236990.298    22236983.766
   6340527.03749   4931300.86545  24448313.681    24448324.233    24448313.303
  -2384234.10749  -1851102.02046  23328316.751    23328326.295    23328316.248
   6244579.18349   4852909.44946  23384655.471    23384662.735    23384655.560
 99  4 22 15 54 29.9990000  0  6G 2G27G26G19G15G13
  -1666158.65449  -1293389.22047  20858998.262    20859004.369    20858997.736
   1308570.48249   1020038.87047  20644776.841    20644783.273    20644776.581
  -4336026.28449  -3365146.82947  22231609.674    22231616.376    22231609.832
   6419152.68649   4992567.50945  24463275.808    24463286.210    24463275.457
  -2388697.66049  -1854580.12746  23327467.366    23327476.883    23327466.846
   6321836.69749   4913109.99445  23399357.216    23399364.525    23399357.277
 99  4 22 15 54 59.9990000  0  6G 2G27G26G19G15G13
  -1680352.68349  -1304449.52147  20856297.168    20856303.333    20856296.715
   1342195.84249   1046240.41347  20651175.569    20651182.001    20651175.295
  -4363711.05449  -3386719.37747  22226341.339    22226348.152    22226341.555
   6497930.94649   5053953.07945  24478267.021    24478277.332    24478266.618
  -2392586.49649  -1857610.40746  23326727.457    23326736.880    23326726.850
   6399155.18549   4973358.02646  23414070.542    23414077.857    23414070.577
 99  4 22 15 55 29.9990000  0  6G 2G27G26G19G15G13
  -1694379.07149  -1315379.19747  20853628.040    20853634.205    20853627.594
   1376233.31049   1072763.08147  20657652.724    20657659.148    20657652.439
  -4390861.14649  -3407875.30047  22221174.849    22221181.635    22221175.063
   6576835.67449   5115437.17645  24493282.225    24493292.423    24493281.873
  -2395913.97849  -1860203.27046  23326094.213    23326103.715    23326093.618
   6476538.84649   5033656.87646  23428796.139    23428803.529    23428796.251
 99  4 22 15 55 59.9990000  0  6G 2G27G26G19G15G13
  -1708233.55449  -1326174.91847  20850991.684    20850997.823    20850991.211
   1410696.90549   1099617.79747  20664211.001    20664217.393    20664210.693
  -4417471.47149  -3428610.61747  22216111.102    22216117.879    22216111.301
   6655854.98149   5177010.58445  24508319.215    24508329.356    24508318.902
  -2398678.98049  -1862357.83046  23325568.031    23325577.548    23325567.432
   6553995.14849   5094012.31445  23443535.631    23443543.131    23443535.781
 99  4 22 15 56 29.9990000  0  6G 2G27G26G19G15G13
  -1721921.48049  -1336840.85247  20848386.946    20848393.133    20848386.502
   1445606.97549   1126820.41647  20670854.190    20670860.595    20670853.890
  -4443539.99749  -3448923.75047  22211150.355    22211157.198    22211150.624
   6734992.15049   5238675.79845  24523378.652    24523388.781    24523378.292
  -2400876.47449  -1864070.18946  23325149.849    23325159.409    23325149.273
   6631524.07049   5154424.35245  23458288.948    23458296.523    23458289.063
 99  4 22 15 56 59.9990000  0  6G 2G27G26G19G15G13
  -1735474.97649  -1347402.04047  20845807.826    20845814.008    20845807.369
   1480949.42549   1154359.95047  20677579.660    20677586.080    20677579.378
  -4469099.59749  -3468840.32047  22206286.600    22206293.335    22206286.803
   6814216.02449   5300408.57945  24538454.481    24538464.671    24538454.091
  -2402519.48649  -1865350.49246  23324837.162    23324846.770    23324836.615
   6709114.83149   5214884.56645  23473054.120    23473061.724    23473054.177
 99  4 22 15 57 29.9990000  0  7G 2G27G26G19G15G 4G13
  -1748906.93249  -1357868.52047  20843251.838    20843258.038    20843251.392
   1516742.59349   1182250.69747  20684390.946    20684397.350    20684390.631
  -4494144.46449  -3488355.80647  22201520.677    22201527.453    22201520.928
   6893533.68049   5362214.42845  24553548.186    24553558.372    24553547.743
  -2403594.63449  -1866188.30246  23324632.546    23324642.181    23324632.014
  -1719150.15659  -1007241.42355  24687340.774    24687351.810    24687341.120
   6786777.59849   5275400.89445  23487832.955    23487840.629    23487833.015
 99  4 22 15 57 59.9990000  0  7G 2G27G26G19G15G 4G13
  -1762234.08649  -1368253.34147  20840715.851    20840721.974    20840715.345
   1552989.46049   1210494.97247  20691288.489    20691294.949    20691288.194
  -4518677.49149  -3507472.45547  22196852.265    22196859.006    22196852.471
   6972937.26249   5424087.22745  24568658.299    24568668.448    24568657.789
  -2404104.35649  -1866585.52746  23324535.557    23324545.162    23324535.036
  -1846860.48949  -1106756.01045  24663038.289    24663049.374    24663038.458
   6864491.76849   5335957.29445  23502621.600    23502629.209    23502621.640
 99  4 22 15 58 29.9990000  0  7G 2G27G26G19G15G 4G13
  -1775489.37149  -1378582.15747  20838193.495    20838199.592    20838192.952
   1589659.52349   1239069.00147  20698266.524    20698273.083    20698266.287
  -4542729.92749  -3526214.62547  22192275.299    22192281.996    22192275.467
   7052408.85949   5486013.02245  24583781.177    24583791.484    24583780.913
  -2404072.39649  -1866560.66946  23324541.682    23324551.309    23324541.132
  -1974742.25549  -1206404.13245  24638703.320    24638714.356    24638703.441
   6942223.32449   5396527.22545  23517413.597    23517421.194    23517413.575
 99  4 22 15 58 59.9990000  0  7G 2G27G26G19G15G 4G13
  -1788620.02549  -1388813.85247  20835694.790    20835700.936    20835694.288
   1626792.18349   1268003.50647  20705332.611    20705339.222    20705332.402
  -4566250.10949  -3544542.04947  22187799.539    22187806.308    22187799.724
   7131975.09649   5548012.55145  24598922.279    24598932.538    24598921.951
  -2403457.17249  -1866081.31846  23324658.758    23324668.395    23324658.212
  -2102757.81749  -1306156.49045  24614342.845    24614353.682    24614343.006
   7020007.65349   5457138.27545  23532215.508    23532223.212    23532215.534
 99  4 22 15 59 29.9990000  0  7G 2G27G26G19G15G 4G13
  -1801618.40749  -1398942.48747  20833221.308    20833227.440    20833220.803
   1664374.89749   1297288.69747  20712484.362    20712491.015    20712484.156
  -4589235.69149  -3562452.89847  22183425.477    22183432.332    22183425.701
   7211620.87549   5610074.07845  24614078.550    24614088.678    24614078.160
  -2402278.67749  -1865163.06146  23324882.958    23324892.667    23324882.458
  -2230914.96749  -1406019.14345  24589955.455    24589966.168    24589955.487
   7097813.67549   5517766.25645  23547021.755    23547029.282    23547021.706
 99  4 22 15 59 59.9990000  0  7G 2G27G26G19G15G 4G13
  -1814457.77149  -1408947.20647  20830778.093    20830784.205    20830777.586
   1702404.61949   1326922.20247  20719721.212    20719727.887    20719721.001
  -4611689.16749  -3579949.12147  22179152.793    22179159.587    22179152.969
   7291349.67349   5672200.30145  24629250.717    24629260.686    24629250.229
  -2400542.33649  -1863810.12146  23325213.443    23325223.122    23325212.881
  -2359212.86549  -1505991.44645  24565541.222    24565551.897    24565541.195
   7175623.97949   5578397.54745  23561828.576    23561836.256    23561828.610
 99  4 22 16  0 29.9990000  0  7G 2G27G26G19G15G 4G13
  -1827127.92049  -1418820.06947  20828367.068    20828373.169    20828366.549
   1740862.15449   1356889.07147  20727039.478    20727046.169    20727039.259
  -4633631.03549  -3597046.69447  22174977.449    22174984.204    22174977.588
   7371162.41449   5734391.92545  24644438.775    24644448.786    24644438.171
  -2398260.05249  -1862031.78046  23325647.756    23325657.437    23325647.184
  -2487669.98549  -1606087.83045  24541096.514    24541107.289    24541096.695
   7253435.69949   5639029.93645  23576635.641    23576643.358    23576635.726
 99  4 22 16  0 59.9990000  0  7G 2G27G26G19G15G 4G13
  -1839604.14549  -1428541.82847  20825992.953    20825999.039    20825992.427
   1779761.55849   1387200.24847  20734441.808    20734448.540    20734441.586
  -4655039.65449  -3613728.74047  22170903.478    22170910.273    22170903.687
   7451080.41549   5796665.54845  24659646.730    24659656.790    24659645.996
  -2395418.27349  -1859817.48546  23326188.603    23326198.256    23326188.019
  -2616282.43649  -1706305.18945  24516622.389    24516633.178    24516622.599
   7331276.02349   5699684.63945  23591448.165    23591455.954    23591448.317
 99  4 22 16  1 29.9990000  0  7G 2G27G26G19G15G 4G13
  -1851879.80749  -1438107.30047  20823657.040    20823663.088    20823656.483
   1819108.90749   1417860.47347  20741929.364    20741936.143    20741929.155
  -4675904.24949  -3629986.87947  22166933.113    22166939.908    22166933.304
   7531133.92849   5859044.78745  24674880.494    24674890.600    24674879.908
  -2392003.85649  -1857156.97046  23326838.419    23326848.007    23326837.810
  -2745019.79949  -1806619.91545  24492124.511    24492135.190    24492124.706
   7409161.30749   5760374.36045  23606269.291    23606277.179    23606269.487
 99  4 22 16  1 59.9990000  0  7G 2G27G26G19G15G 4G13
  -1863973.54149  -1447531.00947  20821355.645    20821361.759    20821355.128
   1858896.35049   1448863.63247  20749500.677    20749507.507    20749500.485
  -4696222.36949  -3645819.19547  22163066.724    22163073.513    22163066.885
   7611339.13249   5921542.20844  24690142.942    24690153.305    24690142.462
  -2388008.77749  -1854044.00446  23327598.720    23327608.253    23327598.095
  -2873864.29649  -1907018.14345  24467606.178    24467616.743    24467606.395
   7487099.69649   5821105.48045  23621100.616    23621108.451    23621100.742
 99  4 22 16  2 29.9990000  0  7G 2G27G26G19G15G 4G13
  -1875939.22549  -1456854.94047  20819078.699    20819084.804    20819078.163
   1899099.40949   1480190.64947  20757151.140    20757157.952    20757150.903
  -4716013.57849  -3661240.92647  22159300.515    22159307.394    22159300.737
   7691662.27949   5984131.55945  24705428.035    24705438.463    24705427.660
  -2383458.08849  -1850498.09346  23328464.792    23328474.263    23328464.101
  -3002834.78649  -2007514.48345  24443063.865    24443074.318    24443064.020
   7565081.59549   5881870.48545  23635940.270    23635948.022    23635940.345
 99  4 22 16  2 59.9990000  0  7G 2G27G26G19G15G 4G13
  -1887786.08849  -1466086.28247  20816824.295    20816830.449    20816823.789
   1939717.01749   1511840.68647  20764880.452    20764887.280    20764880.212
  -4735260.25049  -3676238.34647  22155638.059    22155644.911    22155638.264
   7772090.21549   6046802.55145  24720732.912    24720743.672    24720732.638
  -2378350.16549  -1846517.97546  23329436.840    23329446.330    23329436.175
  -3131907.03449  -2108090.13545  24418502.180    24418512.772    24418502.384
   7643102.14449   5942665.62045  23650787.035    23650794.904    23650787.240
 99  4 22 16  3 29.9990000  0  7G 2G27G26G19G15G 4G13
  -1899543.79549  -1475248.15147  20814586.905    20814593.076    20814586.404
   1980719.08349   1543790.30447  20772682.921    20772689.763    20772682.684
  -4754007.77149  -3690846.81347  22152070.482    22152077.414    22152070.712
   7852590.22049   6109529.71245  24736051.582    24736062.478    24736051.368
  -2372710.07649  -1842123.17646  23330510.194    23330519.670    23330509.474
  -3261091.33849  -2208753.16645  24393919.166    24393929.778    24393919.362
   7721118.83449   6003457.75645  23665633.255    23665641.129    23665633.401
 99  4 22 16  3 59.9990000  0  7G 2G27G26G19G15G 4G13
  -1911198.67149  -1484329.89447  20812369.116    20812375.259    20812368.584
   2022133.11349   1576060.93147  20780563.799    20780570.639    20780563.549
  -4772258.66749  -3705068.31147  22148597.537    22148604.402    22148597.722
   7933170.68249   6172319.59644  24751385.683    24751396.579    24751385.480
  -2366517.05149  -1837297.52946  23331688.637    23331698.228    23331687.979
  -3390376.65049  -2309494.87445  24369316.805    24369327.484    24369317.088
   7799150.52749   6064261.56245  23680482.279    23680490.180    23680482.395
 99  4 22 16  4 29.9980000  0  7G 2G27G26G19G15G 4G13
  -1922742.04649  -1493324.75747  20810172.489    20810178.653    20810171.984
   2063961.46849   1608654.41347  20788523.504    20788530.351    20788523.258
  -4790021.05949  -3718909.15247  22145217.458    22145224.344    22145217.650
   8013817.91649   6235161.48145  24766732.349    24766743.435    24766732.123
  -2359771.52249  -1832041.36845  23332972.374    23332981.920    23332971.684
  -3519764.90949  -2410316.81945  24344694.812    24344705.682    24344695.209
   7877192.57449   6125073.46945  23695333.441    23695341.215    23695333.440
 99  4 22 16  4 59.9980000  0  7G 2G27G26G19G15G 4G13
  -1934148.00649  -1502212.54447  20808002.040    20808008.185    20808001.488
   2106213.87149   1641578.31747  20796563.900    20796570.751    20796563.661
  -4807297.16949  -3732371.07247  22141929.908    22141936.827    22141930.114
   8094554.92549   6298073.32345  24782096.251    24782107.292    24782096.014
  -2352456.79849  -1826341.66346  23334364.438    23334373.982    23334363.722
  -3649252.62849  -2511216.21745  24320053.921    24320064.900    24320054.345
   7955245.33849   6185893.71245  23710186.366    23710194.242    23710186.448
 99  4 22 16  5 29.9980000  0  6G 2G27G26G15G 4G13
  -1945453.02949  -1511021.68047  20805850.740    20805856.924    20805850.229
   2148853.89949   1674804.26547  20804678.102    20804684.913    20804677.832
  -4824140.01549  -3745495.39047  22138724.799    22138731.751    22138725.040
  -2344613.00449  -1820229.70445  23335857.202    23335866.659    23335856.433
  -3778898.47549  -2612238.89245  24295382.980    24295394.088    24295383.474
   8033255.29949   6246680.58845  23725031.247    23725039.138    23725031.362
 99  4 22 16  5 59.9980000  0  7G 9G 2G27G26G15G 4G13
   -327107.08859   -239983.38155  24074535.700    24074545.431    24074534.867
  -1956618.97249  -1519722.43947  20803725.961    20803732.146    20803725.451
   2191916.92649   1708359.81947  20812872.759    20812879.578    20812872.499
  -4840500.60149  -3758243.91147  22135611.447    22135618.453    22135611.709
  -2336209.08549  -1813681.26045  23337456.430    23337465.886    23337455.704
  -3908685.26149  -2713371.40345  24270685.328    24270696.406    24270685.894
   8111250.63349   6307456.10045  23739873.396    23739881.290    23739873.512
 99  4 22 16  6 29.9980000  0  7G 9G 2G27G26G15G 4G13
   -452104.39749   -337383.84845  24050749.658    24050759.311    24050749.159
  -1967613.21049  -1528289.40547  20801633.859    20801640.031    20801633.342
   2235413.61649   1742253.29047  20821149.930    20821156.771    20821149.679
  -4856345.62149  -3770590.71047  22132596.177    22132603.245    22132596.494
  -2327232.01449  -1806686.20445  23339164.824    23339174.175    23339164.063
  -4038592.30149  -2814597.57845  24245964.790    24245975.846    24245965.302
   8189231.39949   6368220.23045  23754712.687    23754720.675    23754712.818
 99  4 22 16  6 59.9980000  0  7G 9G 2G27G26G15G 4G13
   -577043.87459   -434739.28355  24026974.459    24026983.753    24026974.314
  -1978463.39349  -1536744.11947  20799569.229    20799575.339    20799568.656
   2279322.21549   1776467.73347  20829505.481    20829512.363    20829505.238
  -4871705.59649  -3782559.53947  22129673.242    22129680.338    22129673.553
  -2317722.20449  -1799276.02245  23340974.468    23340983.887    23340973.727
  -4168643.77949  -2915936.32045  24221216.745    24221227.863    24221217.317
   8267153.77249   6428938.85945  23769540.943    23769548.844    23769541.043
 99  4 22 16  7 29.9980000  0  7G 9G 2G27G26G15G 4G13
   -701891.83249   -532023.31445  24003216.660    24003225.749    24003216.429
  -1989142.31049  -1545065.37347  20797537.102    20797543.238    20797536.554
   2323681.57949   1811033.42347  20837946.810    20837953.727    20837946.578
  -4886531.12449  -3794111.91447  22126852.056    22126859.140    22126852.358
  -2307652.52549  -1791429.56245  23342890.765    23342900.167    23342890.059
  -4298801.28549  -3017357.73345  24196448.557    24196459.676    24196449.114
   8345058.48749   6489643.73945  23784365.711    23784373.644    23784365.907
 99  4 22 16  7 59.9980000  0  7G 9G 2G27G26G15G 4G13
   -826689.09949   -629267.91845  23979468.574    23979477.758    23979468.311
  -1999682.35849  -1553278.41847  20795531.356    20795537.561    20795530.846
   2368468.07949   1845931.94847  20846469.398    20846476.380    20846469.192
  -4900836.79449  -3805259.21147  22124129.796    22124136.886    22124130.083
  -2297052.80549  -1783170.07345  23344907.858    23344917.287    23344907.212
  -4429071.71549  -3118867.11745  24171658.904    24171669.979    24171659.417
   8422934.13349   6550325.97245  23799185.211    23799192.955    23799185.294
 99  4 22 16  8 29.9980000  0  7G 9G 2G27G26G15G 4G13
   -951456.34749   -726489.09745  23955726.107    23955735.253    23955725.929
  -2010080.28149  -1561380.71947  20793552.699    20793558.938    20793552.216
   2413686.22649   1881166.81847  20855074.140    20855081.183    20855073.939
  -4914624.10449  -3816002.58247  22121506.134    22121513.271    22121506.439
  -2285921.66849  -1774496.47845  23347026.044    23347035.526    23347025.441
  -4559441.83749  -3220454.12245  24146850.238    24146861.313    24146850.721
   8500795.98849   6610997.40945  23814001.753    23814009.716    23814001.907
 99  4 22 16  8 59.9980000  0  7G 9G 2G27G26G15G 4G13
  -1076209.44949   -823699.27945  23931986.361    23931995.535    23931986.206
  -2020361.05749  -1569391.73747  20791596.379    20791602.608    20791595.866
   2459315.38649   1916721.96247  20863757.094    20863764.185    20863756.907
  -4927910.31849  -3826355.49347  22118977.891    22118985.003    22118978.175
  -2274276.06549  -1765422.00645  23349242.104    23349251.633    23349241.548
  -4689930.10749  -3322133.25845  24122019.229    24122030.156    24122019.606
   8578649.92249   6671662.71945  23828817.020    23828824.964    23828817.100
 99  4 22 16  9 29.9980000  0  7G 9G 2G27G26G15G 4G13
  -1200910.15549   -920868.60845  23908256.549    23908265.698    23908256.466
  -2030496.30049  -1577289.35747  20789667.701    20789673.928    20789667.207
   2505372.59649   1952610.65647  20872521.531    20872528.652    20872521.330
  -4940664.67049  -3836293.98047  22116550.833    22116557.920    22116551.113
  -2262081.01349  -1755919.38045  23351562.678    23351572.353    23351562.155
  -4820508.73549  -3423882.80345  24097171.006    24097181.807    24097171.256
   8656541.37649   6732357.29645  23843639.438    23843647.303    23843639.508
 99  4 22 16  9 59.9980000  0  7G 9G 2G27G26G15G 4G13
  -1325523.61549  -1017969.96445  23884543.319    23884552.555    23884543.299
  -2040448.30249  -1585044.18747  20787773.872    20787780.137    20787773.412
   2551885.05649   1988854.08547  20881372.630    20881379.741    20881372.408
  -4952876.03049  -3845809.34147  22114227.060    22114234.178    22114227.356
  -2249304.26649  -1745963.47045  23353993.984    23354003.768    23353993.480
  -4951143.66049  -3525676.19445  24072312.102    24072322.788    24072312.295
   8734491.36149   6793097.42445  23858472.725    23858480.846    23858472.877
 99  4 22 16 10 29.9980000  0  7G 9G 2G27G26G15G 4G13
  -1450077.56249  -1115024.91145  23860841.541    23860850.690    23860841.497
  -2050265.45149  -1592693.93547  20785905.697    20785912.022    20785905.285
   2598793.14649   2025405.79847  20890298.974    20890306.120    20890298.750
  -4964608.94749  -3854951.89547  22111994.403    22112001.504    22111994.674
  -2235996.19849  -1735593.57445  23356526.334    23356536.282    23356525.910
  -5081890.56249  -3627556.84745  24047431.932    24047442.454    24047432.040
   8812430.38049   6853829.04445  23873304.082    23873312.261    23873304.253
 99  4 22 16 10 59.9980000  0  7G 9G 2G27G26G15G 4G13
  -1574547.34949  -1212014.30045  23837155.734    23837164.839    23837155.703
  -2059945.54149  -1600236.88447  20784063.685    20784070.003    20784063.252
   2646099.82349   2062268.09347  20899301.156    20899308.358    20899300.938
  -4975857.02149  -3863716.64047  22109853.973    22109861.093    22109854.263
  -2222149.47649  -1724803.90345  23359161.324    23359171.313    23359160.856
  -5212732.40249  -3729511.47845  24022533.512    24022544.015    24022533.714
   8890354.85249   6914549.28245  23888132.671    23888140.931    23888132.823
 99  4 22 16 11 29.9980000  0  7G 9G 2G27G26G15G 4G13
  -1698941.39749  -1308944.69745  23813484.299    23813493.391    23813484.267
  -2069489.97049  -1607674.12347  20782247.519    20782253.799    20782247.034
   2693801.56949   2099438.24047  20908378.502    20908385.766    20908378.308
  -4986624.33949  -3872106.76947  22107805.090    22107812.161    22107805.341
  -2207768.82649  -1713598.20545  23361897.834    23361907.896    23361897.401
  -5343660.26149  -3831533.12545  23997618.739    23997629.291    23997618.931
   8968236.50649   6975236.20545  23902953.138    23902961.347    23902953.249
 99  4 22 16 11 59.9980000  0  7G 9G 2G27G26G15G 4G13
  -1823283.02349  -1405834.23245  23789822.870    23789831.904    23789822.849
  -2078901.60249  -1615007.88147  20780456.566    20780462.871    20780456.088
   2741886.76949   2136907.17747  20917528.878    20917536.133    20917528.650
  -4996919.95549  -3880129.34847  22105845.971    22105852.989    22105846.196
  -2192865.15249  -1701984.95045  23364733.944    23364744.016    23364733.504
  -5474676.13349  -3933623.34245  23972687.080    23972697.772    23972687.409
   9046046.87749   7035867.51845  23917760.089    23917768.333    23917760.205
 99  4 22 16 12 29.9980000  0  7G 9G 2G27G26G15G 4G13
  -1947580.16249  -1502689.10845  23766169.897    23766178.879    23766169.875
  -2088159.95949  -1622222.20947  20778694.730    20778701.092    20778694.314
   2790367.06149   2174683.98147  20926754.426    20926761.684    20926754.183
  -5006721.34849  -3887766.82247  22103980.867    22103987.867    22103981.057
  -2177426.92049  -1689955.15345  23367671.739    23367681.868    23367671.314
  -5605765.37749  -4035770.75345  23947741.470    23947752.267    23947741.832
   9123798.53049   7096453.16845  23932555.991    23932564.026    23932556.010
 99  4 22 16 12 59.9980000  0  7G 9G 2G27G26G15G 4G13
  -2071869.36649  -1599537.79645  23742518.477    23742527.412    23742518.434
  -2097276.71549  -1629326.19447  20776959.853    20776966.269    20776959.472
   2839225.36849   2212755.34147  20936051.935    20936059.148    20936051.664
  -5016035.83249  -3895024.89947  22102208.328    22102215.387    22102208.552
  -2161471.76149  -1677522.55345  23370708.049    23370718.073    23370707.488
  -5736932.51249  -4137978.83545  23922781.060    23922791.976    23922781.489
   9201483.12949   7156986.50345  23947338.925    23947346.973    23947339.023
 99  4 22 16 13 29.9980000  0  7G 9G 2G27G26G15G 4G13
  -2196135.87349  -1696368.78645  23718871.271    23718880.206    23718871.264
  -2106229.87149  -1636302.70147  20775256.142    20775262.561    20775255.756
   2888479.93149   2251135.47647  20945424.803    20945432.011    20945424.536
  -5024841.56849  -3901886.52147  22100532.656    22100539.720    22100532.898
  -2144979.70249  -1664671.60545  23373846.420    23373856.426    23373845.833
  -5868164.24049  -4240237.25045  23897808.461    23897819.298    23897808.841
   9279115.38249   7217479.07245  23962111.976    23962119.990    23962112.029
 99  4 22 16 13 59.9980000  0  7G 9G 2G27G26G15G 4G13
  -2320377.41249  -1793180.32146  23695228.802    23695237.823    23695228.860
  -2115035.89649  -1643164.55947  20773580.480    20773586.857    20773580.037
   2938119.80349   2289815.84347  20954870.998    20954878.187    20954870.738
  -5033167.95849  -3908374.64347  22098948.196    22098955.281    22098948.450
  -2127964.77649  -1651413.24045  23377084.255    23377094.259    23377083.664
  -5999484.29249  -4342564.50445  23872818.970    23872829.794    23872819.362
   9356680.35749   7277919.16645  23976872.148    23976880.341    23976872.239
 99  4 22 16 14 29.9980000  0  7G 9G 2G27G26G15G 4G13
  -2444552.40849  -1889940.00346  23671598.973    23671608.078    23671599.094
  -2123697.92749  -1649914.21147  20771932.178    20771938.572    20771931.705
   2988156.08349   2328805.10047  20964392.613    20964399.801    20964392.365
  -5041013.29449  -3914487.91347  22097455.318    22097462.385    22097455.567
  -2110419.00949  -1637741.23145  23380423.173    23380433.088    23380422.565
  -6130884.38449  -4444954.10945  23847814.413    23847825.086    23847814.796
   9434189.60149   7338315.90345  23991621.857    23991629.952    23991621.864
 99  4 22 16 14 59.9980000  0  7G 9G 2G27G26G15G 4G13
  -2568604.30949  -1986603.77046  23647992.641    23648001.770    23647992.776
  -2132201.62549  -1656540.48947  20770313.960    20770320.397    20770313.535
   3038615.23649   2368123.87047  20973994.719    20974001.866    20973994.468
  -5048353.06749  -3920207.24247  22096058.588    22096065.657    22096058.847
  -2092317.00049  -1623635.78845  23383867.831    23383877.795    23383867.262
  -6262326.39249  -4547376.35645  23822801.926    23822812.487    23822802.220
   9511676.34849   7398695.06045  24006367.286    24006375.314    24006367.237
 99  4 22 16 15 29.9980000  0  7G 9G 2G27G26G15G 4G13
  -2692545.10649  -2083180.95245  23624407.367    23624416.572    23624407.578
  -2140571.68449  -1663062.63147  20768721.239    20768727.651    20768720.766
   3089467.15749   2407748.68847  20983671.543    20983678.686    20983671.313
  -5055234.05649  -3925569.08447  22094749.246    22094756.280    22094749.455
  -2073691.33149  -1609122.30745  23387412.159    23387422.177    23387411.617
  -6393841.46849  -4649855.54845  23797775.407    23797785.826    23797775.690
   9589089.51249   7459016.88745  24021098.692    24021106.586    24021098.597
 99  4 22 16 15 59.9980000  0  7G 9G 2G27G26G15G 4G13
  -2816372.13749  -2179669.49245  23600843.837    23600853.024    23600843.986
  -2148801.59049  -1669475.56447  20767155.124    20767161.609    20767154.672
   3140709.82049   2447677.97947  20993422.799    20993429.865    20993422.528
  -5061657.12449  -3930574.10247  22093526.986    22093534.048    22093527.198
  -2054540.55849  -1594199.64645  23391056.559    23391066.445    23391055.942
  -6525415.27049  -4752380.47745  23772737.671    23772748.005    23772737.956
   9666432.31649   7519283.90845  24035816.625    24035824.546    24035816.572
 99  4 22 16 16 29.9980000  0  7G 9G 2G27G26G15G 4G13
  -2940089.58649  -2276072.61345  23577301.129    23577310.358    23577301.290
  -2156875.61149  -1675767.02947  20765618.734    20765625.207    20765618.249
   3192359.49249   2487924.41947  21003251.451    21003258.495    21003251.178
  -5067593.19249  -3935199.63847  22092397.422    22092404.457    22092397.610
  -2034855.23749  -1578860.48045  23394802.435    23394812.460    23394801.917
  -6657022.95649  -4854931.82445  23747693.422    23747703.795    23747693.768
   9743724.58649   7579511.53845  24050524.808    24050532.951    24050524.829
 99  4 22 16 16 59.9980000  0  7G 9G 2G27G26G15G 4G13
  -3063714.68149  -2372403.76445  23553775.904    23553785.250    23553776.113
  -2164797.68449  -1681940.08747  20764111.208    20764117.677    20764110.728
   3244403.21849   2528477.91447  21013155.133    21013162.120    21013154.824
  -5073040.09849  -3939444.00947  22091360.900    22091367.969    22091361.126
  -2014646.98149  -1563113.82545  23398647.959    23398657.977    23398647.430
  -6788675.95049  -4957518.48945  23722640.481    23722650.898    23722640.999
   9820940.57849   7639679.71645  24065218.573    24065226.801    24065218.624
 99  4 22 16 17 29.9980000  0  7G 9G 2G27G26G15G 4G13
  -3187241.86449  -2468658.65145  23530269.397    23530278.769    23530269.620
  -2172557.99549  -1687987.09747  20762634.478    20762640.984    20762634.015
   3296847.60049   2569343.60547  21023134.990    21023141.989    21023134.708
  -5077970.24449  -3943285.70847  22090422.723    22090429.796    22090422.971
  -1993899.24049  -1546946.80445  23402596.063    23402606.135    23402595.586
  -6920364.50949  -5060132.84545  23697580.741    23697591.229    23697581.363
   9898076.27449   7699785.30645  24079897.169    24079905.281    24079897.097
 99  4 22 16 17 59.9980000  0  7G 9G 2G27G26G15G 4G13
  -3310683.37649  -2564846.76446  23506779.207    23506788.578    23506779.506
  -2180190.20949  -1693934.29147  20761182.110    20761188.664    20761181.664
   3349685.27049   2610515.75047  21033189.663    21033196.689    21033189.411
  -5082377.25849  -3946719.77347  22089584.131    22089591.198    22089584.365
  -1972622.87349  -1530367.84545  23406644.860    23406654.929    23406644.410
  -7052098.91049  -5162782.92745  23672512.384    23672522.940    23672513.043
   9975143.21949   7759837.38345  24094562.583    24094570.652    24094562.621
 99  4 22 16 18 29.9980000  0  7G 9G 2G27G26G15G 4G13
  -3434028.34349  -2660959.66846  23483307.429    23483316.733    23483307.693
  -2187704.44949  -1699789.55747  20759752.239    20759758.771    20759751.780
   3402926.37549   2652002.25947  21043321.129    21043328.156    21043320.885
  -5086260.67249  -3949745.84247  22088845.140    22088852.227    22088845.402
  -1950822.33349  -1513380.46945  23410793.353    23410803.465    23410792.870
  -7183878.44249  -5265468.15345  23647435.369    23647446.080    23647436.115
  10052138.91449   7819833.90545  24109214.346    24109222.505    24109214.467
 99  4 22 16 18 59.9980000  0  7G 9G 2G27G26G15G 4G13
  -3557280.17949  -2756999.98346  23459853.351    23459862.642    23459853.561
  -2195126.88249  -1705573.28447  20758339.844    20758346.360    20758339.358
   3456534.54049   2693774.79247  21053522.415    21053529.493    21053522.201
  -5089649.91449  -3952386.84147  22088200.238    22088207.332    22088200.495
  -1928516.54849  -1495999.40745  23415038.069    23415048.106    23415037.539
  -7315715.52149  -5368198.23745  23622347.439    23622358.183    23622348.258
  10129048.63349   7879763.42745  24123849.781    24123857.981    24123849.966
 99  4 22 16 19 29.9980000  0  7G 9G 2G27G26G15G 4G13
  -3680443.58249  -2852971.41146  23436416.140    23436425.361    23436416.330
  -2202449.09249  -1711278.91747  20756946.487    20756953.009    20756945.997
   3510515.80349   2735838.04647  21063794.719    21063801.828    21063794.516
  -5092554.14149  -3954649.90847  22087647.700    22087654.718    22087647.887
  -1905701.73849  -1478221.69445  23419379.600    23419389.646    23419379.070
  -7447595.42749  -5470961.69845  23597251.431    23597262.232    23597252.279
  10205900.65549   7939647.96845  24138474.069    24138482.647    24138474.374
 99  4 22 16 19 59.9980000  0  7G 9G 2G27G26G15G 4G13
  -3803477.19049  -2948841.71046  23413003.570    23413012.723    23413003.804
  -2209614.62649  -1716862.46047  20755582.980    20755589.471    20755582.469
   3564912.37949   2778224.91747  21074146.038    21074153.190    21074145.868
  -5094951.99449  -3956518.39847  22087191.424    22087198.451    22087191.624
  -1882348.38249  -1460024.33745  23423823.573    23423833.657    23423823.067
  -7579486.93849  -5573734.21945  23572153.283    23572164.108    23572154.078
  10282738.39249   7999521.40945  24153095.698    24153104.517    24153096.009
 99  4 22 16 20 29.9980000  0  7G 9G 2G27G26G15G 4G13
  -3926385.75849  -3044614.57045  23389614.799    23389623.915    23389615.026
  -2216619.19049  -1722320.57447  20754250.101    20754256.561    20754249.576
   3619703.39449   2820919.14947  21084572.510    21084579.639    21084572.310
  -5096873.08149  -3958015.37247  22086825.902    22086832.923    22086826.083
  -1858469.46249  -1441417.46445  23428367.430    23428377.685    23428367.039
  -7711400.07449  -5676523.62045  23547051.070    23547061.857    23547051.812
  10359536.61349   8059364.02345  24167709.951    24167718.949    24167710.268
 99  4 22 16 20 59.9980000  0  7G 9G 2G27G26G15G 4G13
  -4049203.28249  -3140316.48445  23366243.412    23366252.347    23366243.577
  -2223475.04549  -1727662.80947  20752945.458    20752951.955    20752944.969
   3674843.51349   2863885.39947  21095065.406    21095072.511    21095065.179
  -5098355.97249  -3959170.90247  22086543.820    22086550.765    22086543.934
  -1834094.59849  -1422424.11445  23433005.842    23433016.042    23433005.442
  -7843365.83549  -5779354.04845  23521938.889    23521949.585    23521939.592
  10436251.17349   8119141.44845  24182308.311    24182317.412    24182308.626
 99  4 22 16 21 29.9980000  0  7G 9G 2G27G26G15G 4G13
  -4171945.32449  -3235959.54745  23342886.312    23342895.224    23342886.471
  -2230162.84649  -1732874.09647  20751672.853    20751679.344    20751672.357
   3730343.48649   2907132.05647  21105626.762    21105633.891    21105626.533
  -5099394.22949  -3959979.97247  22086346.221    22086353.216    22086346.397
  -1809225.54149  -1403045.69145  23437738.350    23437748.556    23437737.867
  -7975388.59249  -5882228.86445  23496815.865    23496826.423    23496816.483
  10512859.35049   8178835.99645  24196886.565    24196895.572    24196886.762
 99  4 22 16 21 59.9980000  0  7G 9G 2G27G26G15G 4G13
  -4294626.62649  -3331555.29845  23319540.667    23319549.717    23319540.882
  -2236701.33849  -1737969.03847  20750428.655    20750435.138    20750428.133
   3786191.39249   2950649.83747  21116254.303    21116261.464    21116254.077
  -5100010.37049  -3960460.11147  22086229.027    22086236.031    22086229.155
  -1783879.43649  -1383295.54345  23442561.697    23442571.771    23442561.129
  -8107482.52549  -5985159.15945  23471679.229    23471689.775    23471679.809
  10589325.87449   8238420.14545  24211437.844    24211446.727    24211437.987
 99  4 22 16 22 29.9980000  0  7G 9G 2G27G26G15G 4G13
  -4417226.73649  -3427087.75745  23296210.456    23296219.618    23296210.724
  -2243067.38549  -1742929.60447  20749217.256    20749223.724    20749216.727
   3842418.86849   2994463.37947  21126954.075    21126961.273    21126953.847
  -5100178.54449  -3960591.18447  22086196.920    22086204.077    22086197.205
  -1758026.01349  -1363150.06445  23447481.573    23447491.607    23447480.952
  -8239592.29049  -6088101.78645  23446539.530    23446550.117    23446540.072
  10665670.01549   8297908.93945  24225965.865    24225974.576    24225965.917
 99  4 22 16 22 59.9980000  0  7G 9G 2G27G26G15G 4G13
  -4539743.37149  -3522555.20645  23272896.359    23272905.414    23272896.564
  -2249237.66249  -1747737.62647  20748043.073    20748049.564    20748042.592
   3899043.74649   3038586.58847  21137729.484    21137736.717    21137729.267
  -5099868.64649  -3960349.73347  22086256.125    22086263.116    22086256.205
  -1731653.31049  -1342599.95845  23452500.159    23452510.224    23452499.542
  -8371693.12849  -6191037.46545  23421401.558    23421412.146    23421402.064
  10741896.44949   8357305.97545  24240471.294    24240480.087    24240471.487
 99  4 22 16 23 29.9980000  0  7G 9G 2G27G26G15G 4G13
  -4662182.61249  -3617962.33946  23249596.913    23249606.020    23249597.123
  -2255246.49149  -1752419.84347  20746899.645    20746906.122    20746899.161
   3956056.29149   3083011.87547  21148578.691    21148585.921    21148578.446
  -5099095.70449  -3959747.46647  22086403.076    22086410.209    22086403.314
  -1704778.64849  -1321658.71745  23457614.215    23457624.365    23457613.678
  -8503801.18649  -6293978.76745  23396262.211    23396272.745    23396262.698
  10817987.51249   8416597.57245  24254951.127    24254959.830    24254951.246
 99  4 22 16 23 59.9980000  0  8G 9G 2G27G26G15G 7G 4G13
  -4784536.65749  -3713303.09846  23226313.661    23226322.787    23226313.870
  -2261132.02949  -1757005.99747  20745779.697    20745786.126    20745779.202
   4013431.83749   3127720.01547  21159496.990    21159504.203    21159496.723
  -5097889.04649  -3958807.24247  22086632.639    22086639.847    22086632.941
  -1677420.21949  -1300340.49145  23462820.582    23462830.550    23462819.915
    -73375.52919    -53572.78518  19872007.853    19872014.762    19872007.895
  -8635932.07349  -6396937.87445  23371118.615    23371129.032    23371119.094
  10893936.32849   8475778.32445  24269403.916    24269412.599    24269404.020
